| time (UTC) | temp F | wind direction | speed MPH | gust MPH | rain 1hr in | rain 24hr in | rain mn in | humidity % | barometer mb |
| 20260509005556 | 68 | 30 | 0.0 | 6.0 | 0.00 | 0.00 | 0.00 | 64 | 1014.2 |
| 20260509005056 | 69 | 25 | 0.0 | 4.0 | 0.00 | 0.00 | 0.00 | 64 | 1014.2 |
| 20260509004620 | 69 | 45 | 0.0 | 4.0 | 0.00 | 0.00 | 0.00 | 64 | 1014.2 |
| 20260509004055 | 69 | 33 | 0.0 | 6.0 | 0.00 | 0.00 | 0.00 | 64 | 1014.3 |
| 20260509003557 | 69 | 16 | 0.0 | 5.0 | 0.00 | 0.00 | 0.00 | 64 | 1014.2 |
| 20260509003054 | 69 | 30 | 0.0 | 5.0 | 0.00 | 0.00 | 0.00 | 64 | 1014.1 |
| 20260509002553 | 69 | 40 | 0.0 | 7.0 | 0.00 | 0.00 | 0.00 | 64 | 1014.2 |
| 20260509002053 | 69 | 17 | 1.0 | 7.0 | 0.00 | 0.00 | 0.00 | 64 | 1014.3 |
| 20260509001555 | 69 | 301 | 1.0 | 7.0 | 0.00 | 0.00 | 0.00 | 64 | 1014.2 |
| 20260509001053 | 69 | 273 | 2.0 | 6.0 | 0.00 | 0.00 | 0.00 | 64 | 1014.3 |
| 20260509000552 | 69 | 252 | 2.0 | 9.0 | 0.00 | 0.00 | 0.00 | 63 | 1014.4 |
| 20260509000046 | 69 | 310 | 4.0 | 9.0 | 0.00 | 0.00 | 0.00 | 64 | 1014.4 |
| 20260508235545 | 69 | 262 | 0.0 | 6.0 | 0.00 | 0.00 | 0.00 | 63 | 1014.5 |
| 20260508235047 | 70 | 268 | 1.0 | 7.0 | 0.00 | 0.00 | 0.00 | 63 | 1014.4 |
| 20260508234544 | 70 | 304 | 2.0 | 8.0 | 0.00 | 0.00 | 0.00 | 63 | 1014.4 |
| 20260508234045 | 70 | 302 | 1.0 | 10.0 | 0.00 | 0.00 | 0.00 | 63 | 1014.4 |
| 20260508233547 | 70 | 272 | 3.0 | 10.0 | 0.00 | 0.00 | 0.00 | 63 | 1014.5 |
| 20260508233043 | 70 | 271 | 4.0 | 10.0 | 0.00 | 0.00 | 0.00 | 63 | 1014.5 |
| 20260508232541 | 70 | 270 | 3.0 | 10.0 | 0.00 | 0.00 | 0.00 | 64 | 1014.6 |
| 20260508232043 | 70 | 288 | 2.0 | 9.0 | 0.00 | 0.00 | 0.00 | 64 | 1014.6 |
| 20260508231541 | 71 | 282 | 6.0 | 9.0 | 0.00 | 0.00 | 0.00 | 63 | 1014.6 |
| 20260508231041 | 70 | 291 | 2.0 | 10.0 | 0.00 | 0.00 | 0.00 | 64 | 1014.6 |
| 20260508230541 | 70 | 266 | 4.0 | 10.0 | 0.00 | 0.00 | 0.00 | 64 | 1014.7 |
| 20260508230032 | 70 | 266 | 3.0 | 9.0 | 0.00 | 0.00 | 0.00 | 65 | 1014.7 |
| 20260508225532 | 70 | 276 | 2.0 | 10.0 | 0.00 | 0.00 | 0.00 | 64 | 1014.8 |
| 20260508225031 | 70 | 212 | 2.0 | 10.0 | 0.00 | 0.00 | 0.00 | 65 | 1014.9 |
| 20260508224535 | 69 | 248 | 1.0 | 8.0 | 0.00 | 0.00 | 0.00 | 65 | 1015.0 |
| 20260508224033 | 69 | 266 | 2.0 | 10.0 | 0.00 | 0.00 | 0.00 | 65 | 1015.0 |
| 20260508223529 | 69 | 253 | 2.0 | 10.0 | 0.00 | 0.00 | 0.00 | 65 | 1014.9 |
| 20260508223041 | 68 | 271 | 4.0 | 10.0 | 0.00 | 0.00 | 0.00 | 66 | 1015.1 |
| 20260508222525 | 68 | 226 | 1.0 | 7.0 | 0.00 | 0.00 | 0.00 | 66 | 1015.1 |
| 20260508222024 | 68 | 279 | 2.0 | 10.0 | 0.00 | 0.00 | 0.00 | 66 | 1015.2 |
| 20260508221523 | 68 | 256 | 4.0 | 10.0 | 0.00 | 0.00 | 0.00 | 66 | 1015.3 |
| 20260508221022 | 67 | 274 | 2.0 | 10.0 | 0.00 | 0.00 | 0.00 | 66 | 1015.3 |
| 20260508220520 | 67 | 242 | 3.0 | 10.0 | 0.00 | 0.00 | 0.00 | 66 | 1015.3 |
| 20260508220004 | 67 | 283 | 4.0 | 10.0 | 0.00 | 0.00 | 0.00 | 67 | 1015.5 |
| 20260508215603 | 67 | 208 | 3.0 | 11.0 | 0.00 | 0.00 | 0.00 | 66 | 1015.5 |
| 20260508215002 | 67 | 269 | 4.0 | 11.0 | 0.00 | 0.00 | 0.00 | 67 | 1015.6 |
| 20260508214614 | 66 | 212 | 4.0 | 13.0 | 0.00 | 0.00 | 0.00 | 67 | 1015.6 |
| 20260508214101 | 66 | 253 | 5.0 | 13.0 | 0.00 | 0.00 | 0.00 | 67 | 1015.6 |
| 20260508214001 | 66 | 280 | 6.0 | 13.0 | 0.00 | 0.00 | 0.00 | 67 | 1015.6 |
| 20260508213559 | 66 | 250 | 3.0 | 11.0 | 0.00 | 0.00 | 0.00 | 67 | 1015.7 |
| 20260508213106 | 66 | 261 | 7.0 | 12.0 | 0.00 | 0.00 | 0.00 | 66 | 1015.8 |
| 20260508212559 | 67 | 277 | 5.0 | 12.0 | 0.00 | 0.00 | 0.00 | 66 | 1015.7 |
| 20260508212059 | 67 | 264 | 4.0 | 12.0 | 0.00 | 0.00 | 0.00 | 66 | 1015.8 |
| 20260508211558 | 67 | 291 | 6.0 | 12.0 | 0.00 | 0.00 | 0.00 | 67 | 1015.8 |
| 20260508211057 | 67 | 275 | 6.0 | 10.0 | 0.00 | 0.00 | 0.00 | 67 | 1015.9 |
| 20260508210600 | 67 | 285 | 4.0 | 11.0 | 0.00 | 0.00 | 0.00 | 67 | 1016.0 |
| 20260508210053 | 66 | 272 | 4.0 | 12.0 | 0.00 | 0.00 | 0.00 | 67 | 1016.1 |
| 20260508205550 | 66 | 289 | 4.0 | 12.0 | 0.00 | 0.00 | 0.00 | 67 | 1016.1 |
| 20260508205049 | 66 | 263 | 7.0 | 12.0 | 0.00 | 0.00 | 0.00 | 66 | 1016.1 |
| 20260508204550 | 66 | 279 | 3.0 | 12.0 | 0.00 | 0.00 | 0.00 | 67 | 1016.3 |
| 20260508204047 | 66 | 263 | 3.0 | 11.0 | 0.00 | 0.00 | 0.00 | 67 | 1016.3 |
| 20260508203549 | 66 | 289 | 4.0 | 11.0 | 0.00 | 0.00 | 0.00 | 68 | 1016.4 |
| 20260508203047 | 65 | 288 | 3.0 | 11.0 | 0.00 | 0.00 | 0.00 | 68 | 1016.5 |
| 20260508202547 | 65 | 258 | 5.0 | 11.0 | 0.00 | 0.00 | 0.00 | 68 | 1016.5 |
| 20260508202047 | 65 | 280 | 4.0 | 12.0 | 0.00 | 0.00 | 0.00 | 68 | 1016.5 |
| 20260508201547 | 65 | 293 | 6.0 | 12.0 | 0.00 | 0.00 | 0.00 | 68 | 1016.5 |
| 20260508201047 | 65 | 285 | 4.0 | 12.0 | 0.00 | 0.00 | 0.00 | 69 | 1016.6 |
| 20260508200546 | 65 | 281 | 7.0 | 13.0 | 0.00 | 0.00 | 0.00 | 67 | 1016.6 |
| 20260508200023 | 66 | 306 | 5.0 | 13.0 | 0.00 | 0.00 | 0.00 | 68 | 1016.7 |
| 20260508195523 | 66 | 279 | 6.0 | 11.0 | 0.00 | 0.00 | 0.00 | 68 | 1016.6 |
| 20260508195024 | 66 | 266 | 3.0 | 14.0 | 0.00 | 0.00 | 0.00 | 68 | 1016.8 |
| 20260508194522 | 66 | 300 | 6.0 | 14.0 | 0.00 | 0.00 | 0.00 | 68 | 1016.8 |
| 20260508194023 | 66 | 304 | 5.0 | 11.0 | 0.00 | 0.00 | 0.00 | 69 | 1016.8 |
| 20260508193521 | 66 | 281 | 2.0 | 11.0 | 0.00 | 0.00 | 0.00 | 69 | 1016.8 |
| 20260508193021 | 66 | 285 | 6.0 | 11.0 | 0.00 | 0.00 | 0.00 | 69 | 1016.8 |
| 20260508192519 | 66 | 300 | 5.0 | 11.0 | 0.00 | 0.00 | 0.00 | 70 | 1016.9 |
| 20260508192018 | 65 | 262 | 3.0 | 10.0 | 0.00 | 0.00 | 0.00 | 71 | 1016.9 |
| 20260508191518 | 65 | 353 | 1.0 | 9.0 | 0.00 | 0.00 | 0.00 | 70 | 1017.0 |
| 20260508191016 | 65 | 275 | 0.0 | 10.0 | 0.00 | 0.00 | 0.00 | 71 | 1017.0 |
| 20260508190516 | 64 | 285 | 5.0 | 10.0 | 0.00 | 0.00 | 0.00 | 71 | 1017.1 |
| 20260508190021 | 64 | 300 | 5.0 | 10.0 | 0.00 | 0.00 | 0.00 | 71 | 1017.1 |
| 20260508185507 | 64 | 290 | 4.0 | 10.0 | 0.00 | 0.00 | 0.00 | 71 | 1017.2 |
| 20260508185005 | 65 | 310 | 6.0 | 10.0 | 0.00 | 0.00 | 0.00 | 72 | 1017.2 |
| 20260508184518 | 64 | 281 | 3.0 | 9.0 | 0.00 | 0.00 | 0.00 | 72 | 1017.3 |
| 20260508184007 | 65 | 303 | 5.0 | 9.0 | 0.00 | 0.00 | 0.00 | 71 | 1017.2 |
| 20260508183503 | 65 | 300 | 3.0 | 11.0 | 0.00 | 0.00 | 0.00 | 72 | 1017.3 |
| 20260508183002 | 64 | 283 | 5.0 | 11.0 | 0.00 | 0.00 | 0.00 | 73 | 1017.3 |
| 20260508182501 | 64 | 325 | 4.0 | 9.0 | 0.00 | 0.00 | 0.00 | 73 | 1017.3 |
| 20260508182059 | 64 | 264 | 3.0 | 9.0 | 0.00 | 0.00 | 0.00 | 74 | 1017.3 |
| 20260508181558 | 63 | 258 | 3.0 | 9.0 | 0.00 | 0.00 | 0.00 | 73 | 1017.4 |
| 20260508181101 | 63 | 282 | 6.0 | 11.0 | 0.00 | 0.00 | 0.00 | 74 | 1017.4 |
| 20260508180557 | 63 | 296 | 5.0 | 11.0 | 0.00 | 0.00 | 0.00 | 74 | 1017.4 |
| 20260508180058 | 63 | 265 | 0.0 | 9.0 | 0.00 | 0.00 | 0.00 | 75 | 1017.4 |
| 20260508175548 | 63 | 276 | 5.0 | 9.0 | 0.00 | 0.00 | 0.00 | 74 | 1017.3 |
| 20260508175046 | 63 | 271 | 3.0 | 8.0 | 0.00 | 0.00 | 0.00 | 74 | 1017.2 |
| 20260508174600 | 63 | 281 | 0.0 | 5.0 | 0.00 | 0.00 | 0.00 | 75 | 1017.3 |
| 20260508174044 | 63 | 251 | 0.0 | 6.0 | 0.00 | 0.00 | 0.00 | 76 | 1017.3 |
| 20260508173542 | 62 | 296 | 2.0 | 7.0 | 0.00 | 0.00 | 0.00 | 77 | 1017.5 |
| 20260508173041 | 62 | 29 | 2.0 | 7.0 | 0.00 | 0.00 | 0.00 | 78 | 1017.5 |
| 20260508172539 | 61 | 309 | 4.0 | 7.0 | 0.00 | 0.00 | 0.00 | 78 | 1017.6 |
| 20260508172041 | 61 | 289 | 2.0 | 8.0 | 0.00 | 0.00 | 0.00 | 78 | 1017.7 |
| 20260508171538 | 61 | 306 | 3.0 | 8.0 | 0.00 | 0.00 | 0.00 | 79 | 1017.7 |
| 20260508171036 | 61 | 319 | 1.0 | 8.0 | 0.00 | 0.00 | 0.00 | 80 | 1017.7 |
| 20260508170535 | 60 | 293 | 0.0 | 7.0 | 0.00 | 0.00 | 0.00 | 81 | 1017.6 |
| 20260508170034 | 60 | 329 | 4.0 | 7.0 | 0.00 | 0.00 | 0.00 | 82 | 1017.7 |
| 20260508165526 | 59 | 287 | 0.0 | 4.0 | 0.00 | 0.00 | 0.00 | 83 | 1017.7 |
| 20260508165024 | 59 | 316 | 1.0 | 6.0 | 0.00 | 0.00 | 0.00 | 84 | 1017.7 |
| 20260508164534 | 58 | 333 | 2.0 | 6.0 | 0.00 | 0.00 | 0.00 | 86 | 1017.6 |
| 20260508164022 | 57 | 48 | 0.0 | 4.0 | 0.00 | 0.00 | 0.00 | 86 | 1017.6 |
| 20260508163521 | 56 | 8 | 1.0 | 5.0 | 0.00 | 0.00 | 0.00 | 87 | 1017.7 |
| 20260508163022 | 56 | 20 | 1.0 | 4.0 | 0.00 | 0.00 | 0.00 | 87 | 1017.8 |
| 20260508162518 | 55 | 323 | 0.0 | 3.0 | 0.00 | 0.00 | 0.00 | 86 | 1017.8 |
| 20260508162017 | 55 | 323 | 0.0 | 4.0 | 0.00 | 0.00 | 0.00 | 87 | 1017.7 |
| 20260508161515 | 55 | 319 | 2.0 | 6.0 | 0.00 | 0.00 | 0.00 | 87 | 1017.7 |
| 20260508161015 | 55 | 321 | 2.0 | 6.0 | 0.00 | 0.00 | 0.00 | 87 | 1017.6 |
| 20260508160512 | 54 | 78 | 0.0 | 3.0 | 0.00 | 0.00 | 0.00 | 87 | 1017.6 |
| 20260508160058 | 54 | 78 | 0.0 | 3.0 | 0.00 | 0.00 | 0.00 | 87 | 1017.7 |
| 20260508155557 | 54 | 85 | 0.0 | 3.0 | 0.00 | 0.00 | 0.00 | 87 | 1017.7 |
| 20260508155055 | 54 | 85 | 0.0 | 4.0 | 0.00 | 0.00 | 0.00 | 87 | 1017.7 |
| 20260508154555 | 54 | 30 | 0.0 | 4.0 | 0.00 | 0.00 | 0.00 | 88 | 1017.7 |
| 20260508154053 | 54 | 11 | 1.0 | 5.0 | 0.00 | 0.00 | 0.00 | 88 | 1017.8 |
| 20260508153554 | 54 | 343 | 1.0 | 5.0 | 0.00 | 0.00 | 0.00 | 88 | 1017.8 |
| 20260508153057 | 54 | 114 | 0.0 | 2.0 | 0.00 | 0.00 | 0.00 | 88 | 1017.8 |
| 20260508152551 | 54 | 37 | 0.0 | 2.0 | 0.00 | 0.00 | 0.00 | 88 | 1017.7 |
| 20260508152051 | 54 | 15 | 0.0 | 4.0 | 0.00 | 0.00 | 0.00 | 88 | 1017.8 |
| 20260508151550 | 54 | 29 | 0.0 | 8.0 | 0.00 | 0.00 | 0.00 | 88 | 1017.7 |
| 20260508151049 | 54 | 20 | 1.0 | 8.0 | 0.00 | 0.00 | 0.00 | 88 | 1017.7 |
| 20260508150548 | 53 | 11 | 0.0 | 4.0 | 0.00 | 0.00 | 0.00 | 88 | 1017.6 |
| 20260508150043 | 53 | 50 | 0.0 | 4.0 | 0.00 | 0.00 | 0.00 | 88 | 1017.7 |
| 20260508145543 | 53 | 56 | 0.0 | 5.0 | 0.00 | 0.00 | 0.00 | 88 | 1017.7 |
| 20260508145039 | 53 | 33 | 1.0 | 5.0 | 0.00 | 0.00 | 0.00 | 88 | 1017.9 |
| 20260508144542 | 53 | 33 | 0.0 | 4.0 | 0.00 | 0.00 | 0.00 | 88 | 1017.8 |
| 20260508144038 | 53 | 35 | 0.0 | 4.0 | 0.00 | 0.00 | 0.00 | 88 | 1017.8 |
| 20260508143538 | 53 | 359 | 0.0 | 4.0 | 0.00 | 0.00 | 0.00 | 88 | 1017.9 |
| 20260508143036 | 53 | 21 | 0.0 | 3.0 | 0.00 | 0.00 | 0.00 | 88 | 1017.8 |
| 20260508142536 | 53 | 45 | 0.0 | 3.0 | 0.00 | 0.00 | 0.00 | 88 | 1017.8 |
| 20260508142135 | 53 | 45 | 0.0 | 3.0 | 0.00 | 0.00 | 0.00 | 88 | 1017.7 |
| 20260508141535 | 53 | 45 | 0.0 | 3.0 | 0.00 | 0.00 | 0.00 | 88 | 1017.7 |
| 20260508141034 | 53 | 48 | 0.0 | 3.0 | 0.00 | 0.00 | 0.00 | 88 | 1017.7 |
| 20260508140532 | 53 | 48 | 0.0 | 1.0 | 0.00 | 0.00 | 0.00 | 88 | 1017.7 |
| 20260508140026 | 53 | 48 | 0.0 | 4.0 | 0.00 | 0.00 | 0.00 | 88 | 1017.5 |
| 20260508135527 | 53 | 48 | 0.0 | 4.0 | 0.00 | 0.00 | 0.00 | 88 | 1017.5 |
| 20260508135025 | 53 | 33 | 0.0 | 6.0 | 0.00 | 0.00 | 0.00 | 88 | 1017.5 |
| 20260508134524 | 53 | 79 | 1.0 | 6.0 | 0.00 | 0.00 | 0.00 | 88 | 1017.5 |
| 20260508134023 | 53 | 103 | 1.0 | 6.0 | 0.00 | 0.00 | 0.00 | 88 | 1017.4 |
| 20260508133523 | 53 | 74 | 0.0 | 7.0 | 0.00 | 0.00 | 0.00 | 88 | 1017.4 |
| 20260508133022 | 53 | 71 | 0.0 | 7.0 | 0.00 | 0.00 | 0.00 | 88 | 1017.4 |
| 20260508132526 | 53 | 20 | 0.0 | 4.0 | 0.00 | 0.00 | 0.00 | 88 | 1017.4 |
| 20260508132021 | 53 | 45 | 0.0 | 4.0 | 0.00 | 0.00 | 0.00 | 88 | 1017.3 |
| 20260508131521 | 53 | 46 | 0.0 | 3.0 | 0.00 | 0.00 | 0.00 | 88 | 1017.3 |
| 20260508131020 | 53 | 46 | 0.0 | 4.0 | 0.00 | 0.00 | 0.00 | 88 | 1017.2 |
| 20260508130520 | 53 | 46 | 1.0 | 4.0 | 0.00 | 0.00 | 0.00 | 88 | 1017.1 |
| 20260508130030 | 53 | 73 | 0.0 | 3.0 | 0.00 | 0.00 | 0.00 | 88 | 1017.0 |
| 20260508125518 | 53 | 73 | 0.0 | 0.0 | 0.00 | 0.00 | 0.00 | 88 | 1017.1 |
| 20260508125018 | 53 | 83 | 0.0 | 0.0 | 0.00 | 0.00 | 0.00 | 88 | 1017.1 |
| 20260508124518 | 53 | 83 | 0.0 | 0.0 | 0.00 | 0.00 | 0.00 | 88 | 1017.1 |
| 20260508124017 | 53 | 83 | 0.0 | 2.0 | 0.00 | 0.00 | 0.00 | 88 | 1016.9 |
| 20260508123516 | 53 | 83 | 0.0 | 3.0 | 0.00 | 0.00 | 0.00 | 87 | 1017.0 |
| 20260508123020 | 53 | 83 | 0.0 | 3.0 | 0.00 | 0.00 | 0.00 | 87 | 1016.9 |
| 20260508122519 | 53 | 83 | 0.0 | 2.0 | 0.00 | 0.00 | 0.00 | 87 | 1016.9 |
| 20260508122015 | 53 | 83 | 0.0 | 3.0 | 0.00 | 0.00 | 0.00 | 87 | 1016.9 |
| 20260508121515 | 53 | 83 | 0.0 | 3.0 | 0.00 | 0.00 | 0.00 | 87 | 1016.8 |
| 20260508121015 | 53 | 83 | 0.0 | 1.0 | 0.00 | 0.00 | 0.00 | 87 | 1016.8 |
| 20260508120514 | 53 | 83 | 0.0 | 2.0 | 0.00 | 0.00 | 0.00 | 87 | 1016.8 |
| 20260508120015 | 53 | 83 | 0.0 | 2.0 | 0.00 | 0.00 | 0.00 | 87 | 1016.9 |
| 20260508115515 | 53 | 83 | 0.0 | 3.0 | 0.00 | 0.00 | 0.00 | 87 | 1016.9 |
| 20260508115013 | 53 | 83 | 0.0 | 4.0 | 0.00 | 0.00 | 0.00 | 87 | 1016.9 |
| 20260508114513 | 53 | 83 | 0.0 | 4.0 | 0.00 | 0.00 | 0.00 | 87 | 1016.9 |
| 20260508114013 | 53 | 83 | 0.0 | 5.0 | 0.00 | 0.00 | 0.00 | 87 | 1016.9 |
| 20260508113517 | 53 | 83 | 1.0 | 5.0 | 0.00 | 0.00 | 0.00 | 87 | 1016.8 |
| 20260508113017 | 53 | 92 | 0.0 | 3.0 | 0.00 | 0.00 | 0.00 | 87 | 1016.8 |
| 20260508112513 | 53 | 62 | 0.0 | 2.0 | 0.00 | 0.00 | 0.00 | 87 | 1016.9 |
| 20260508112013 | 53 | 62 | 0.0 | 2.0 | 0.00 | 0.00 | 0.00 | 87 | 1016.8 |
| 20260508111512 | 53 | 61 | 0.0 | 0.0 | 0.00 | 0.00 | 0.00 | 87 | 1016.7 |
| 20260508111012 | 53 | 61 | 0.0 | 0.0 | 0.00 | 0.00 | 0.00 | 87 | 1016.7 |
| 20260508110511 | 53 | 61 | 0.0 | 0.0 | 0.00 | 0.00 | 0.00 | 87 | 1016.8 |
| 20260508110011 | 53 | 61 | 0.0 | 0.0 | 0.00 | 0.00 | 0.00 | 87 | 1016.8 |
| 20260508105511 | 53 | 61 | 0.0 | 0.0 | 0.00 | 0.00 | 0.00 | 87 | 1016.8 |
| 20260508105011 | 53 | 61 | 0.0 | 0.0 | 0.00 | 0.00 | 0.00 | 87 | 1016.8 |
| 20260508104510 | 53 | 61 | 0.0 | 0.0 | 0.00 | 0.00 | 0.00 | 87 | 1016.7 |
| 20260508104014 | 53 | 61 | 0.0 | 0.0 | 0.00 | 0.00 | 0.00 | 87 | 1016.7 |
| 20260508103510 | 53 | 61 | 0.0 | 0.0 | 0.00 | 0.00 | 0.00 | 87 | 1016.7 |
| 20260508103011 | 53 | 61 | 0.0 | 0.0 | 0.00 | 0.00 | 0.00 | 87 | 1016.7 |
| 20260508102510 | 53 | 61 | 0.0 | 0.0 | 0.00 | 0.00 | 0.00 | 87 | 1016.7 |
| 20260508102010 | 53 | 61 | 0.0 | 0.0 | 0.00 | 0.00 | 0.00 | 87 | 1016.7 |
| 20260508101509 | 53 | 61 | 0.0 | 0.0 | 0.00 | 0.00 | 0.00 | 87 | 1016.8 |
| 20260508101009 | 53 | 61 | 0.0 | 1.0 | 0.00 | 0.00 | 0.00 | 87 | 1016.8 |
| 20260508100508 | 53 | 61 | 0.0 | 2.0 | 0.00 | 0.00 | 0.00 | 87 | 1016.7 |
| 20260508100010 | 53 | 61 | 0.0 | 2.0 | 0.00 | 0.00 | 0.00 | 87 | 1016.8 |
| 20260508095511 | 53 | 61 | 0.0 | 2.0 | 0.00 | 0.00 | 0.00 | 86 | 1016.8 |
| 20260508095007 | 53 | 61 | 0.0 | 2.0 | 0.00 | 0.00 | 0.00 | 86 | 1016.7 |
| 20260508094507 | 53 | 61 | 0.0 | 1.0 | 0.00 | 0.00 | 0.00 | 86 | 1016.8 |
| 20260508094008 | 53 | 61 | 0.0 | 4.0 | 0.00 | 0.00 | 0.00 | 86 | 1016.7 |
| 20260508093507 | 53 | 61 | 0.0 | 4.0 | 0.00 | 0.00 | 0.00 | 86 | 1016.7 |
| 20260508093008 | 52 | 61 | 0.0 | 2.0 | 0.00 | 0.00 | 0.00 | 86 | 1016.7 |
| 20260508092505 | 52 | 61 | 0.0 | 2.0 | 0.00 | 0.00 | 0.00 | 86 | 1016.6 |
| 20260508092010 | 52 | 61 | 0.0 | 2.0 | 0.00 | 0.00 | 0.00 | 86 | 1016.7 |
| 20260508091511 | 52 | 61 | 0.0 | 2.0 | 0.00 | 0.00 | 0.00 | 85 | 1016.7 |
| 20260508091005 | 52 | 61 | 0.0 | 0.0 | 0.00 | 0.00 | 0.00 | 85 | 1016.8 |
| 20260508090505 | 52 | 61 | 0.0 | 0.0 | 0.00 | 0.00 | 0.00 | 85 | 1016.7 |
| 20260508090008 | 52 | 61 | 0.0 | 0.0 | 0.00 | 0.00 | 0.00 | 85 | 1016.7 |
| 20260508085507 | 52 | 61 | 0.0 | 0.0 | 0.00 | 0.00 | 0.00 | 85 | 1016.8 |
| 20260508085002 | 52 | 61 | 0.0 | 0.0 | 0.00 | 0.00 | 0.00 | 85 | 1016.8 |
| 20260508084503 | 52 | 61 | 0.0 | 0.0 | 0.00 | 0.00 | 0.00 | 85 | 1016.8 |
| 20260508084004 | 52 | 61 | 0.0 | 0.0 | 0.00 | 0.00 | 0.00 | 85 | 1016.8 |
| 20260508083501 | 52 | 61 | 0.0 | 0.0 | 0.00 | 0.00 | 0.00 | 85 | 1016.8 |
| 20260508083000 | 52 | 61 | 0.0 | 0.0 | 0.00 | 0.00 | 0.00 | 85 | 1016.8 |
| 20260508082601 | 52 | 61 | 0.0 | 0.0 | 0.00 | 0.00 | 0.00 | 85 | 1016.8 |
| 20260508082102 | 52 | 61 | 0.0 | 0.0 | 0.00 | 0.00 | 0.00 | 85 | 1016.9 |
| 20260508081610 | 52 | 61 | 0.0 | 0.0 | 0.00 | 0.00 | 0.00 | 85 | 1016.9 |
| 20260508081058 | 53 | 61 | 0.0 | 2.0 | 0.00 | 0.00 | 0.00 | 85 | 1016.9 |
| 20260508080558 | 53 | 61 | 0.0 | 2.0 | 0.00 | 0.00 | 0.00 | 85 | 1016.9 |
| 20260508080057 | 53 | 61 | 0.0 | 0.0 | 0.00 | 0.00 | 0.00 | 85 | 1017.0 |
| 20260508075557 | 53 | 61 | 0.0 | 0.0 | 0.00 | 0.00 | 0.00 | 84 | 1017.0 |
| 20260508075056 | 53 | 61 | 0.0 | 0.0 | 0.00 | 0.00 | 0.00 | 85 | 1017.1 |
| 20260508074556 | 53 | 61 | 0.0 | 1.0 | 0.00 | 0.00 | 0.00 | 85 | 1017.1 |
| 20260508074058 | 53 | 61 | 0.0 | 1.0 | 0.00 | 0.00 | 0.00 | 84 | 1017.1 |
| 20260508073555 | 53 | 61 | 0.0 | 0.0 | 0.00 | 0.00 | 0.00 | 84 | 1017.0 |
| 20260508073055 | 53 | 61 | 0.0 | 0.0 | 0.00 | 0.00 | 0.00 | 84 | 1017.0 |
| 20260508072554 | 53 | 61 | 0.0 | 0.0 | 0.00 | 0.00 | 0.00 | 84 | 1017.0 |
| 20260508072054 | 53 | 61 | 0.0 | 0.0 | 0.00 | 0.00 | 0.00 | 84 | 1017.1 |
| 20260508071554 | 53 | 61 | 0.0 | 0.0 | 0.00 | 0.00 | 0.00 | 84 | 1017.1 |
| 20260508071053 | 53 | 61 | 0.0 | 0.0 | 0.00 | 0.00 | 0.00 | 84 | 1017.1 |
| 20260508070555 | 53 | 61 | 0.0 | 0.0 | 0.00 | 0.00 | 0.00 | 84 | 1017.1 |
| 20260508070053 | 53 | 61 | 0.0 | 0.0 | 0.00 | 0.00 | 0.00 | 84 | 1017.1 |
| 20260508065555 | 53 | 61 | 0.0 | 0.0 | 0.00 | 0.00 | 0.00 | 84 | 1017.1 |
| 20260508065051 | 53 | 61 | 0.0 | 0.0 | 0.00 | 0.00 | 0.00 | 84 | 1017.1 |
| 20260508064653 | 54 | 61 | 0.0 | 0.0 | 0.00 | 0.00 | 0.00 | 84 | 1017.1 |
| 20260508064051 | 54 | 61 | 0.0 | 0.0 | 0.00 | 0.00 | 0.00 | 84 | 1017.0 |
| 20260508063551 | 54 | 61 | 0.0 | 0.0 | 0.00 | 0.00 | 0.00 | 84 | 1017.0 |
| 20260508063102 | 54 | 61 | 0.0 | 0.0 | 0.00 | 0.00 | 0.00 | 84 | 1016.8 |
| 20260508062553 | 54 | 61 | 0.0 | 0.0 | 0.00 | 0.00 | 0.00 | 84 | 1016.8 |
| 20260508062050 | 54 | 61 | 0.0 | 0.0 | 0.00 | 0.00 | 0.00 | 83 | 1016.9 |
| 20260508061551 | 54 | 61 | 0.0 | 0.0 | 0.00 | 0.00 | 0.00 | 83 | 1016.9 |
| 20260508061051 | 54 | 61 | 0.0 | 0.0 | 0.00 | 0.00 | 0.00 | 84 | 1016.7 |
| 20260508060550 | 54 | 61 | 0.0 | 0.0 | 0.00 | 0.00 | 0.00 | 83 | 1016.7 |
| 20260508060050 | 54 | 61 | 0.0 | 0.0 | 0.00 | 0.00 | 0.00 | 83 | 1016.7 |
| 20260508055549 | 54 | 61 | 0.0 | 0.0 | 0.00 | 0.00 | 0.00 | 83 | 1016.7 |
| 20260508055049 | 54 | 61 | 0.0 | 2.0 | 0.00 | 0.00 | 0.00 | 83 | 1016.8 |
| 20260508054550 | 54 | 61 | 0.0 | 0.0 | 0.00 | 0.00 | 0.00 | 83 | 1016.8 |
| 20260508054048 | 54 | 61 | 0.0 | 2.0 | 0.00 | 0.00 | 0.00 | 83 | 1016.8 |
| 20260508053548 | 54 | 61 | 0.0 | 2.0 | 0.00 | 0.00 | 0.00 | 83 | 1016.9 |
| 20260508053100 | 54 | 61 | 0.0 | 4.0 | 0.00 | 0.00 | 0.00 | 83 | 1016.8 |
| 20260508052548 | 55 | 61 | 1.0 | 4.0 | 0.00 | 0.00 | 0.00 | 83 | 1016.9 |
| 20260508052047 | 55 | 60 | 0.0 | 3.0 | 0.00 | 0.00 | 0.00 | 83 | 1016.9 |
| 20260508051548 | 55 | 60 | 0.0 | 3.0 | 0.00 | 0.00 | 0.00 | 82 | 1017.0 |
| 20260508051050 | 55 | 60 | 0.0 | 3.0 | 0.00 | 0.00 | 0.00 | 82 | 1016.9 |
| 20260508050547 | 55 | 60 | 0.0 | 3.0 | 0.00 | 0.00 | 0.00 | 82 | 1016.9 |
| 20260508050044 | 55 | 60 | 0.0 | 2.0 | 0.00 | 0.00 | 0.00 | 82 | 1016.9 |
| 20260508045542 | 55 | 60 | 0.0 | 2.0 | 0.00 | 0.00 | 0.00 | 82 | 1017.0 |
| 20260508045040 | 55 | 60 | 0.0 | 1.0 | 0.00 | 0.00 | 0.00 | 82 | 1017.0 |
| 20260508044541 | 55 | 60 | 0.0 | 1.0 | 0.00 | 0.00 | 0.00 | 82 | 1017.0 |
| 20260508044042 | 55 | 60 | 0.0 | 3.0 | 0.00 | 0.00 | 0.00 | 82 | 1016.9 |
| 20260508043540 | 55 | 60 | 1.0 | 4.0 | 0.00 | 0.00 | 0.00 | 81 | 1016.9 |
| 20260508043054 | 55 | 59 | 1.0 | 4.0 | 0.00 | 0.00 | 0.00 | 81 | 1016.9 |
| 20260508042540 | 55 | 50 | 1.0 | 4.0 | 0.00 | 0.00 | 0.00 | 81 | 1016.8 |
| 20260508042039 | 56 | 62 | 0.0 | 7.0 | 0.00 | 0.00 | 0.00 | 81 | 1016.8 |
| 20260508041548 | 56 | 71 | 1.0 | 7.0 | 0.00 | 0.00 | 0.00 | 81 | 1016.8 |
| 20260508041040 | 56 | 61 | 2.0 | 5.0 | 0.00 | 0.00 | 0.00 | 80 | 1016.8 |
| 20260508040540 | 56 | 69 | 0.0 | 4.0 | 0.00 | 0.00 | 0.00 | 80 | 1016.8 |
| 20260508040038 | 56 | 71 | 0.0 | 5.0 | 0.00 | 0.00 | 0.00 | 80 | 1016.8 |
| 20260508035533 | 56 | 71 | 0.0 | 5.0 | 0.00 | 0.00 | 0.00 | 80 | 1016.8 |
| 20260508035033 | 56 | 73 | 1.0 | 7.0 | 0.00 | 0.00 | 0.00 | 79 | 1016.7 |
| 20260508034534 | 56 | 70 | 2.0 | 7.0 | 0.00 | 0.00 | 0.00 | 79 | 1016.6 |
| 20260508034034 | 56 | 71 | 3.0 | 7.0 | 0.00 | 0.00 | 0.00 | 79 | 1016.6 |
| 20260508033532 | 57 | 86 | 4.0 | 7.0 | 0.00 | 0.00 | 0.00 | 78 | 1016.5 |
| 20260508033032 | 57 | 99 | 2.0 | 7.0 | 0.00 | 0.00 | 0.00 | 78 | 1016.5 |
| 20260508032532 | 57 | 116 | 2.0 | 6.0 | 0.00 | 0.00 | 0.00 | 77 | 1016.4 |
| 20260508032032 | 57 | 64 | 0.0 | 4.0 | 0.00 | 0.00 | 0.00 | 77 | 1016.3 |
| 20260508031532 | 57 | 69 | 1.0 | 5.0 | 0.00 | 0.00 | 0.00 | 77 | 1016.3 |
| 20260508031031 | 58 | 60 | 1.0 | 8.0 | 0.00 | 0.00 | 0.00 | 76 | 1016.3 |
| 20260508030532 | 58 | 102 | 2.0 | 8.0 | 0.00 | 0.00 | 0.00 | 76 | 1016.2 |
| 20260508030027 | 58 | 69 | 2.0 | 8.0 | 0.00 | 0.00 | 0.00 | 75 | 1016.1 |
| 20260508025525 | 59 | 97 | 0.0 | 8.0 | 0.00 | 0.00 | 0.00 | 75 | 1016.1 |
| 20260508025027 | 59 | 9 | 2.0 | 9.0 | 0.00 | 0.00 | 0.00 | 74 | 1015.9 |
| 20260508024524 | 59 | 69 | 2.0 | 9.0 | 0.00 | 0.00 | 0.00 | 74 | 1015.9 |
| 20260508024024 | 60 | 18 | 4.0 | 10.0 | 0.00 | 0.00 | 0.00 | 73 | 1015.8 |
| 20260508023525 | 60 | 42 | 5.0 | 10.0 | 0.00 | 0.00 | 0.00 | 73 | 1015.8 |
| 20260508023023 | 60 | 26 | 4.0 | 12.0 | 0.00 | 0.00 | 0.00 | 72 | 1015.9 |
| 20260508022523 | 61 | 54 | 3.0 | 10.0 | 0.00 | 0.00 | 0.00 | 72 | 1015.7 |
| 20260508022023 | 61 | 69 | 4.0 | 8.0 | 0.00 | 0.00 | 0.00 | 71 | 1015.8 |
| 20260508021524 | 62 | 19 | 2.0 | 8.0 | 0.00 | 0.00 | 0.00 | 71 | 1015.8 |
| 20260508021024 | 62 | 62 | 1.0 | 8.0 | 0.00 | 0.00 | 0.00 | 70 | 1015.7 |
| 20260508020523 | 63 | 23 | 3.0 | 8.0 | 0.00 | 0.00 | 0.00 | 70 | 1015.7 |
| 20260508020027 | 63 | 48 | 3.0 | 8.0 | 0.00 | 0.00 | 0.00 | 69 | 1015.7 |
| 20260508015516 | 64 | 40 | 2.0 | 7.0 | 0.00 | 0.00 | 0.00 | 69 | 1015.7 |
| 20260508015015 | 64 | 62 | 2.0 | 10.0 | 0.00 | 0.00 | 0.00 | 68 | 1015.7 |
| 20260508014515 | 65 | 51 | 0.0 | 10.0 | 0.00 | 0.00 | 0.00 | 68 | 1015.7 |
| 20260508014017 | 65 | 85 | 3.0 | 10.0 | 0.00 | 0.00 | 0.00 | 67 | 1015.7 |
| 20260508013514 | 66 | 12 | 1.0 | 6.0 | 0.00 | 0.00 | 0.00 | 67 | 1015.7 |
| 20260508013014 | 66 | 34 | 1.0 | 7.0 | 0.00 | 0.00 | 0.00 | 67 | 1015.6 |
| 20260508012519 | 66 | 321 | 0.0 | 8.0 | 0.00 | 0.00 | 0.00 | 67 | 1015.5 |
| 20260508012014 | 67 | 62 | 1.0 | 7.0 | 0.00 | 0.00 | 0.00 | 67 | 1015.5 |
| 20260508011515 | 67 | 19 | 2.0 | 11.0 | 0.00 | 0.00 | 0.00 | 66 | 1015.4 |
| 20260508011014 | 67 | 31 | 2.0 | 11.0 | 0.00 | 0.00 | 0.00 | 66 | 1015.4 |
| 20260508010514 | 67 | 48 | 3.0 | 9.0 | 0.00 | 0.00 | 0.00 | 66 | 1015.4 |
| 20260508010053 | 68 | 42 | 2.0 | 9.0 | 0.00 | 0.00 | 0.00 | 65 | 1015.3 |